This demonstration page uses our WeatherBlox Daily Observations layout. Learn more.

Left ArrowRight Arrow

44.89941, -97.11507

Hourly Observations for May 14, 2019

Temp ( °F °C ) Dew Point ( °F °C ) Humidity (%) Winds ( mph kmh ) Pressure ( in mb ) Visibility ( mi km ) Precip ( " mm )
12:53 am 00:53 Mostly Clear 57 13.9 48 8.9 72 72 SE 10 17 29.80 1009 10 16 0.00 0.00
1:53 am 01:53 Clear 56 13.3 48 8.9 75 75 SE 8 13 29.79 1009 10 16 0.00 0.00
2:53 am 02:53 Clear 55 12.8 48 8.9 77 77 SE 7 11 29.79 1009 10 16 0.00 0.00
3:53 am 03:53 Partly Cloudy 53 11.7 47 8.3 80 80 SSE 9 15 29.80 1009 10 16 0.00 0.00
4:53 am 04:53 Mostly Clear 51 10.6 47 8.3 86 86 SSE 6 9 29.81 1010 10 16 0.00 0.00
5:53 am 05:53 Cloudy 51 10.6 47 8.3 86 86 SSE 5 7 29.83 1010 10 16 0.00 0.00
6:53 am 06:53 Sunny 50 10 47 8.3 89 89 SSE 3 6 29.84 1011 8 13 0.00 0.00
7:53 am 07:53 Sunny 54 12.2 50 10 87 87 SSE 7 11 29.85 1011 10 16 0.00 0.00
8:53 am 08:53 Sunny 58 14.4 52 11.1 81 81 S 7 11 29.85 1011 10 16 0.00 0.00
9:53 am 09:53 Sunny 61 16.1 52 11.1 72 72 WSW 5 7 29.86 1011 10 16 0.00 0.00
10:53 am 10:53 Sunny 65 18.3 53 11.7 66 66 VRB 3 6 29.85 1011 10 16 0.00 0.00
11:53 am 11:53 Sunny 68 20 54 12.2 61 61 VRB 3 6 29.87 1011 10 16 0.00 0.00
12:53 pm 12:53 Sunny 70 21.1 53 11.7 55 55 Calm 29.87 1012 10 16 0.00 0.00
1:53 pm 13:53 Sunny 73 22.8 53 11.7 50 50 NNW 7 11 29.86 1011 10 16 0.00 0.00
2:53 pm 14:53 Sunny 74 23.3 53 11.7 48 48 WNW 5 7 29.86 1011 10 16 0.00 0.00
3:53 pm 15:53 Sunny 75 23.9 52 11.1 45 45 NW 5 7 29.85 1011 10 16 0.00 0.00
4:51 pm 16:51 Mostly Cloudy 75 24 55 13 50 50 NNE 10 17 29.78 1008 10 16 0.00 0.00
4:53 pm 16:53 Mostly Cloudy 76 24.4 56 13.3 50 50 NE 9 15 29.85 1011 10 16 0.00 0.00
5:53 pm 17:53 Sunny 76 24.4 54 12.2 47 47 NNE 6 9 29.85 1011 10 16 0.00 0.00
6:53 pm 18:53 Mostly Sunny 74 23.3 53 11.7 48 48 NNE 9 15 29.86 1011 10 16 0.00 0.00
7:53 pm 19:53 Partly Cloudy 71 21.7 54 12.2 55 55 N 8 13 29.87 1012 10 16 0.00 0.00
8:53 pm 20:53 Mostly Cloudy 64 17.8 52 11.1 65 65 NNE 8 13 29.89 1012 10 16 0.00 0.00
9:53 pm 21:53 Clear 59 15 51 10.6 75 75 NNE 7 11 29.91 1013 10 16 0.00 0.00
10:53 pm 22:53 Clear 61 16.1 49 9.4 65 65 NE 14 22 29.93 1014 10 16 0.00 0.00
11:53 pm 23:53 Clear 61 16.1 49 9.4 65 65 ENE 14 22 29.93 1014 10 16 0.00 0.00

Powered by AerisWeather